Regional Weather Roundup
Issued by NWS Sioux Falls, SD

Home | Current Version | Previous Version | Graphics & Text | Print | Product List | Glossary Off
Versions: 1 2 3 4 5 6 7 8 9 10 11 12 13 14 15 16 17 18 19 20 21 22 23 24 25 26 27 28 29 30 31 32 33 34 35 36 37 38 39 40 41 42 43 44 45 46 47 48 49 50

000
ASUS43 KFSD 282210
RWRFSD

WEATHER ROUNDUP FOR SE SOUTH DAKOTA/SW MINNESOTA/NW IOWA
NATIONAL WEATHER SERVICE SIOUX FALLS SD
500 PM CDT SAT MAR 28 2015

NOTE: "FAIR" INDICATES FEW OR NO CLOUDS BELOW 12,000 FEET WITH NO
SIGNIFICANT WEATHER AND OR OBSTRUCTIONS TO VISIBILITY.


SDZ038>040-050-052>070-282300-
SOUTHEAST SOUTH DAKOTA

CITY           SKY/WX    TMP DP  RH WIND       PRES   REMARKS
CHAMBERLAIN    SUNNY     62  35  35 SE25G31   29.79F
HURON          SUNNY     56  30  37 S22G32    29.85F
MADISON        FAIR      50  27  40 S24G30    29.92F
MITCHELL       SUNNY     57  31  37 S21G30    29.89F
SIOUX FALLS    SUNNY     53  26  35 S22G30    29.96F
WINNER         FAIR      73  34  23 S24G31    29.76F
YANKTON        SUNNY     55  30  38 S22G30    29.95F
$$

MNZ071-072-080-081-089-090-097-098-282300-
SOUTHWEST MINNESOTA

CITY           SKY/WX    TMP DP  RH WIND       PRES   REMARKS
FAIRMONT       SUNNY     46  21  36 S21G28    30.06F
JACKSON        SUNNY     46  25  42 S20G25    30.05F
LUVERNE        SUNNY     52  27  37 S21G26    29.99F
MARSHALL       SUNNY     48  28  46 S21G32    29.99F
MONTEVIDEO     SUNNY     48  30  49 SW18G28   29.98F
PIPESTONE      SUNNY     48  28  46 S22G30    29.95F
REDWOOD FALLS  MOSUNNY   47  27  45 S23       30.02F
TRACY          SUNNY     48  31  50 S17G24    29.99F
WINDOM         SUNNY     46  27  46 S18G24    30.03F
WORTHINGTON    SUNNY     46  27  46 S23       30.02F
$$

IAZ001>003-012>014-020>022-031-032-NEZ013-014-SDZ071-282300-
NORTHWEST IOWA

CITY           SKY/WX    TMP DP  RH WIND       PRES   REMARKS
CHEROKEE       SUNNY     51  28  40 S17G23    30.04F
DENISON        SUNNY     50  27  40 S20       30.04F
ESTHERVILLE    SUNNY     47  25  42 S24G30    30.05F
LE MARS        SUNNY     54  27  35 S17G26    30.01F
ORANGE CITY    SUNNY     52  23  32 S20G25    30.01F
SHELDON        SUNNY     50  28  43 S21       30.00F
SIOUX CITY     SUNNY     55  26  32 SE16G24   30.02F
SPENCER        SUNNY     50  29  44 S18G30    30.04F
STORM LAKE     SUNNY     48  27  43 S20G26    30.05F
$$

ABBREVIATIONS USED IN REMARKS
   TC - TEMPERATURE IN CELSIUS
  WCI - WIND CHILL INDEX
   HX - HEAT INDEX
  VSB - VISIBILITY




USA.gov is the U.S. government's official web portal to all federal, state and local government web resources and services.